Location: Axtheid
(49.6213°N, 11.8205°E)
Time: 23:08:35
(UTC+00:00)

Envisat - Pass Details

Date: 26 January 2022
Orbit: 764 x 765 km, 98.2° (Epoch: 21 May)

Event Time Altitude Azimuth Distance (km) Brightness Sun altitude
Rises 02:37:04 0° 30° (NNE) 3,242 6.8 -41.0°
Reaches altitude 10° 02:40:45 10° 58° (ENE) 2,309 6.1 -40.4°
Maximum altitude 02:43:06 13° 86° (E) 2,094 5.8 -40.0°
Drops below altitude 10° 02:45:26 10° 113° (ESE) 2,302 5.9 -39.7°
Sets 02:49:04 0° 141° (SE) 3,221 6.5 -39.1°
